Location: Munkebjergskolens Observatorium
(55.3864°N, 10.3987°E)
Time: 04:32:27
(UTC+02:00)

QB50P2 - Pass Details

Date: 01 April 2023
Orbit: 581 x 596 km, 98.0° (Epoch: 31 May)

Event Time Altitude Azimuth Distance (km) Brightness Sun altitude
Rises 01:46:12 0° 29° (NNE) 2,840 ? -30.1°
Reaches altitude 10° 01:49:34 10° 58° (ENE) 1,927 ? -30.0°
Enters shadow 01:50:46 12° 75° (ENE) 1,768 ? -30.0°
